星链-5140 (STARLINK-5140 )

导读 | 星芒AI

STARLINK-5140 是 SpaceX 星链计划中的一颗低轨通信卫星,属于第十五批部署的星链卫星群。该卫星运行在约 550 公里的近地轨道,旨在为全球用户提供高速互联网服务。它采用先进的相控阵天线和激光通信技术,提升网络连接的稳定性和效率。作为星链系统的一部分,STARLINK-5140 有助于扩大覆盖范围,特别是在偏远和网络基础设施薄弱的地区。该卫星于 2023 年由猎鹰 9 号火箭成功送入轨道,是 SpaceX 打造全球宽带网络的重要组成之一。

基本信息
目录编号:
56147
目录名称:
STARLINK-5140
国际标识:
2023-046BH
轨道中心:
EARTH
卫星名称:
星链-5140
卫星全名:
星链-5140 (STARLINK-5140 )
卫星状态:
在轨 (已飞行998 天)
发射日期:
2023-03-29 UTC
国别 :
美国 (US)
星等 :
--
轨道信息
数据来源 国际轨道数据 AOE轨道数据
星历时间 2025-12-20T06:14:30+0800
1天前
查看轨道信息
2025-12-20T14:00:00+0800
1天前
查看轨道信息
半长轴 6937.211km 6937.211km
偏心率 0.0001155 0.0000036
轨道倾角 43.002° 43.002°
近地点辐角 261.194° 254.793°
升交点赤经 181.142° 179.387°
平近点角 98.877° 55.877°
近地点 558.272km 559.049km
远地点 559.876km 559.099km
周期 95.838分钟 95.838分钟
每日圈数 15.025378 15.025381
详细信息
固有亮度:
5
最大亮度:
2.5
卫星平台:
Starlink v1.5
覆盖范围:
全球
运营商:
太空探索技术公司
运营商所在国:
美国
制造商(研发单位):
太空探索技术公司
制造商所在国:
美国
使用方式:
暂无
卫星简介
星链(Starlink)计划是由太空探索技术公司(SpaceX)提出的一个巨型低轨卫星互联网星座项目,计划在2019年至2024年间在太空搭建由约1.2万颗卫星组成的“星链”网络,其中1584颗将部署在地球上空550千米处的近地轨道,并从2020年开始工作。该卫星仍在工作。
2D轨道图
3D轨道图
轨道高度分析图
轨道倾角分析图
轨道综合分析图
查看轨道综合分析图